Weather Roundup
Issued by NWS Chicago, IL

Home | Current Version | Previous Version | Graphics & Text | Print | Product List | Glossary On
Versions: 1 2 3 4 5 6 7 8 9 10 11 12 13 14 15 16 17 18 19 20 21 22 23 24 25 26 27 28 29 30 31 32 33 34 35 36 37 38 39 40 41 42 43 44 45 46 47 48 49 50
000
NZUS59 KLOT 250910
HRRLOT

CHICAGO AREA WEATHER ROUNDUP
NATIONAL WEATHER SERVICE CHICAGO/ROMEOVILLE IL
300 AM CST SUN JAN 25 2015

NOTE: "FAIR" INDICATES FEW OR NO CLOUDS BELOW 12,000 FEET WITH NO
SIGNIFICANT WEATHER AND/OR OBSTRUCTIONS TO VISIBILITY.

* THESE STATIONS ARE NOT UNDER NWS QUALITY CONTROL. THEY ALSO MAY NOT
  REPORT WEATHER SUCH AS PRECIPITATION OR FOG.

ILZ005-006-012>014-019>023-251000-
NORTHEAST ILLINOIS

CITY           SKY/WX    TMP DP  RH WIND       PRES   REMARKS
OHARE          CLOUDY    32  30  92 NE7       29.67S FOG     WCI  26
MIDWAY         CLOUDY    34  31  88 NE8       29.67F WCI  27
AURORA         CLOUDY    33  29  85 NE6       29.66S FOG     WCI  28
LANSING*       CLOUDY    33  32  95 E5        29.67F WCI  29
JOLIET*        CLOUDY    33  31  94 NE8       29.66S FOG     WCI  26
WAUKEGAN       CLOUDY    32  30  92 N14G24    29.69S WCI  22
DUPAGE AIRPORT CLOUDY    32  29  88 NE12      29.66S FOG     WCI  23
WHEELING       CLOUDY    33  30  88 N5        29.70R WCI  29
KANKAKEE*      MOCLDY    32  32 100 E6        29.65F FOG     WCI  26
MORRIS*        CLOUDY    34  33  98 NE5       29.63F FOG     WCI  30
LEWIS AIRPORT* CLOUDY    32  32  98 E7        29.66F WCI  26
NORTHERLY IS     N/A     32  31  96 N6          N/A  WCI  26
$$

WIZ051-052-058>065-066-070>072-251000-
SOUTHEAST WISCONSIN

CITY           SKY/WX    TMP DP  RH WIND       PRES   REMARKS
MILWAUKEE      FLURRIES  30  24  78 NE17G25   29.74R WCI  18
KENOSHA*       CLOUDY    31  29  92 NE17      29.71R FOG     WCI  19
RACINE*        CLOUDY    31  26  82 NE18      29.74R WCI  19
BURLINGTON     CLOUDY    29  28  94 NE21G26   29.71S WCI  16
WAUKESHA       CLOUDY    28  23  80 NE14G25   29.74R WCI  17
WEST BEND      CLOUDY    28  21  74 NE14G25   29.76R WCI  17
$$

INZ001>003-010>013-019-020-251000-
NORTHWEST INDIANA

CITY           SKY/WX    TMP DP  RH WIND       PRES   REMARKS
GARY*          CLOUDY    35  31  84 NE7       29.67F HAZE    WCI  29
MICHIGAN CITY* NOT AVBL
RENSSELAER*    NOT AVBL
VALPARAISO     CLOUDY    32  32 100 CALM      29.67F FOG
$$

LMZ740>746-251000-
SOUTHERN LAKE MICHIGAN

STATION/POSITION TIME  SKY/WX   TEMP WIND        PRES    VSBY
                                AIR  DIR/SP/G
                 (UTC)          (F)  (DEG/KT/KT) (MB)    (MI)
HARRISON CRIB    0900            32   30/  6/  6   N/A
BURNHAM HARBOR   0900            32   10/  7       N/A
CALUMET HARBOR   0900            33   20/  8/ 10   N/A
BURNS HARBOR     NOT AVBL
MICHIGAN CITY    0900            34   20/  3/  3   N/A
$$

ABBREVIATIONS USED IN REMARKS
   TC - TEMPERATURE IN CELSIUS
  WCI - WIND CHILL INDEX
   HX - HEAT INDEX
  VSB - VISIBILITY
$$


USA.gov is the U.S. government's official web portal to all federal, state and local government web resources and services.